Medford, OR

6:54 AM PDT on October 19, 2017 (GMT -0700)
Rogue Valley International-Medford

Weather History for KMFR - May, 2014

Change the Weather History Date:

Thursday, May 15, 2014

  Actual Average Record
Temperature  
Mean Temperature 72 °F 60 °F  
Max Temperature 87 °F 73 °F 98 °F (2008)
Min Temperature 57 °F 46 °F 34 °F (1980)
Degree Days  
Heating Degree Days 0 6  
Month to date heating degree days 83 118  
Since 1 July heating degree days 4133 4117  
Cooling Degree Days 7 1  
Month to date cooling degree days 27 14  
Year to date cooling degree days 31 17  
Growing Degree Days 22 (Base 50)    
Moisture  
Dew Point 43 °F    
Average Humidity 43    
Maximum Humidity 67    
Minimum Humidity 18    
Precipitation  
Precipitation 0.00 in 0.04 in 0.37 in (1942)
Month to date precipitation 0.31 0.65  
Year to date precipitation 9.96 8.18  
Snow  
Snow 0.00 in 0.00 in - ()
Month to date snowfall 0.0 0.0  
Since 1 July snowfall 3.4 4.1  
Snow Depth 0.00 in    
Sea Level Pressure  
Sea Level Pressure 30.05 in    
Wind  
Wind Speed 5 mph (NNW)    
Max Wind Speed 18 mph    
Max Gust Speed 24 mph    
Visibility 10 miles    
Events      
T = Trace of Precipitation, MM = Missing Value Source: NWS Daily Summary

Daily Weather History Graph

Daily Weather History Graph

Search for Another Location

Airport or City:

Trip Planner

Search our weather history database for the weather conditions in past years. The results will help you decide how hot, cold, wet, or windy it might be!

Date:

Astronomy

May. 15, 2014 Rise Set
Actual Time 5:49 AM PDT 8:26 PM PDT
Civil Twilight 5:17 AM PDT 8:58 PM PDT
Nautical Twilight 4:37 AM PDT 9:39 PM PDT
Astronomical Twilight 3:51 AM PDT 10:25 PM PDT
Moon 9:39 PM PDT (5/15) 6:41 AM PDT (5/15)
Length of Visible Light 15h 40m
Length of Day
14h 36m
Full, 99% of the Moon is Illuminated
May 15
Full
May 21
Last Quarter
May 28
New
Jun 5
First Quarter
Jun 12
Full

Hourly Weather History & Observations

Time (PDT) Temp. Dew Point Humidity Pressure Visibility Wind Dir Wind Speed Gust Speed Precip Events Conditions
12:53 AM 69.1 °F 46.0 °F 44% 30.07 in 10.0 mi SSW 3.5 mph - N/A   Clear
1:53 AM 62.1 °F 50.0 °F 65% 30.08 in 10.0 mi NE 3.5 mph - N/A   Clear
2:53 AM 62.1 °F 48.9 °F 62% 30.07 in 10.0 mi ENE 3.5 mph - N/A   Clear
3:53 AM 60.1 °F 48.9 °F 67% 30.07 in 10.0 mi Calm Calm - N/A   Clear
4:53 AM 59.0 °F 48.0 °F 67% 30.06 in 10.0 mi Calm Calm - N/A   Clear
5:53 AM 59.0 °F 48.0 °F 67% 30.07 in 10.0 mi Calm Calm - N/A   Clear
6:53 AM 59.0 °F 48.9 °F 69% 30.08 in 10.0 mi Calm Calm - N/A   Clear
7:53 AM 61.0 °F 48.9 °F 64% 30.08 in 10.0 mi Calm Calm - N/A   Clear
8:53 AM 64.9 °F 48.0 °F 54% 30.08 in 10.0 mi Calm Calm - N/A   Clear
9:53 AM 69.1 °F 48.0 °F 47% 30.07 in 10.0 mi Calm Calm - N/A   Clear
10:53 AM 75.0 °F 48.0 °F 38% 30.05 in 10.0 mi NNE 3.5 mph - N/A   Clear
12:53 PM 82.9 °F 48.9 °F 31% 30.01 in 10.0 mi NW 6.9 mph - N/A   Clear
1:53 PM 84.9 °F 44.1 °F 24% 30.01 in 10.0 mi WNW 10.4 mph - N/A   Clear
2:53 PM 86.0 °F 42.1 °F 21% 30.00 in 10.0 mi NW 15.0 mph - N/A   Clear
3:53 PM 86.0 °F 45.0 °F 24% 29.99 in 10.0 mi NW 12.7 mph - N/A   Clear
4:53 PM 86.0 °F 41.0 °F 20% 29.99 in 10.0 mi WNW 12.7 mph - N/A   Clear
5:53 PM 82.9 °F 36.0 °F 19% 30.01 in 10.0 mi WNW 15.0 mph 21.9 mph N/A   Clear
6:53 PM 79.0 °F 32.0 °F 18% 30.02 in 10.0 mi WNW 13.8 mph 21.9 mph N/A   Clear
7:53 PM 75.9 °F 28.9 °F 18% 30.04 in 10.0 mi NW 6.9 mph - N/A   Clear
8:53 PM 72.0 °F 28.9 °F 20% 30.05 in 10.0 mi North 6.9 mph - N/A   Clear
9:53 PM 68.0 °F 34.0 °F 28% 30.06 in 10.0 mi NE 3.5 mph - N/A   Clear
10:53 PM 64.9 °F 39.9 °F 40% 30.06 in 10.0 mi SE 3.5 mph - N/A   Clear
11:53 PM 60.1 °F 37.9 °F 44% 30.07 in 10.0 mi SSE 5.8 mph - N/A   Clear